Location: ????????
(55.6189°N, 38.3031°E)
Time: 23:27:35
(UTC+00:00)

Cosmos 2084 Rocket - Pass Details

Date: 15 November 2019
Orbit: 573 x 609 km, 62.8° (Epoch: 14 December)

Event Time Altitude Azimuth Distance (km) Brightness Sun altitude
Exits shadow 03:40:56 13° 264° (W) 1,751 5.3 -11.0°
Maximum altitude 03:44:40 47° 337° (NNW) 809 3.9 -10.5°
Drops below altitude 10° 03:49:00 10° 52° (NE) 1,972 6.6 -9.9°
Sets 03:51:21 0° 58° (ENE) 2,877 7.6 -9.6°
